VCP1DF KPAE-PANC

Flight info

Callsign VCP1DF
Flight time 3h 6m
Altitude 40000
Route PERLL ARRIE J523 YZP Q801 JOH PTERS3
Aircraft B77L/H-SDE1E2E3FGHIJ2J3J4J5M1RWXY/LB1D1

Departure

Time 2026-04-23 00:02
Airport Seattle Paine Field International Airport (KPAE)

Arrival

Time 2026-04-23 03:08
Airport Ted Stevens Anchorage International Airport (PANC)
Time Latitude Longitude Altitude Speed Heading
2026-04-22 22:37 47.91538 -122.27957 576 ft 0 kts
2026-04-22 23:55 47.91547 -122.27957 579 ft 2 kts 360°
2026-04-22 23:56 47.91565 -122.27958 576 ft 3 kts 358°
2026-04-22 23:56 47.91587 -122.27974 577 ft 4 kts 320°
2026-04-22 23:56 47.91604 -122.28013 575 ft 5 kts 300°
2026-04-22 23:56 47.91636 -122.28044 573 ft 6 kts 346°
2026-04-22 23:57 47.91715 -122.28049 574 ft 14 kts
2026-04-22 23:57 47.91819 -122.28048 573 ft 15 kts
2026-04-22 23:57 47.91929 -122.28048 576 ft 16 kts 360°
2026-04-22 23:57 47.92038 -122.28049 575 ft 15 kts 360°
2026-04-22 23:58 47.92125 -122.28049 576 ft 9 kts 355°
2026-04-22 23:58 47.92162 -122.28116 578 ft 9 kts 279°
2026-04-22 23:58 47.92168 -122.28210 571 ft 9 kts 272°
2026-04-22 23:58 47.92167 -122.28274 571 ft 0 kts 264°
2026-04-23 00:00 47.92158 -122.28404 571 ft 9 kts 264°
2026-04-23 00:00 47.92151 -122.28498 578 ft 9 kts 264°
2026-04-23 00:00 47.92129 -122.28576 578 ft 8 kts 207°
2026-04-23 00:01 47.92095 -122.28585 579 ft 0 kts 179°
2026-04-23 00:01 47.92080 -122.28585 559 ft 11 kts 180°
2026-04-23 00:02 47.91770 -122.28580 573 ft 78 kts 179°
2026-04-23 00:02 47.91079 -122.28566 579 ft 126 kts 179°
2026-04-23 00:02 47.90093 -122.28572 825 ft 150 kts 184°
2026-04-23 00:02 47.89094 -122.28633 1664 ft 142 kts 180°
2026-04-23 00:03 47.88124 -122.28582 2513 ft 147 kts 179°
2026-04-23 00:03 47.87022 -122.28506 3204 ft 170 kts 178°
2026-04-23 00:03 47.85739 -122.28437 3537 ft 206 kts 179°
2026-04-23 00:03 47.84126 -122.28361 3811 ft 249 kts 179°
2026-04-23 00:04 47.82304 -122.28351 4476 ft 264 kts 189°
2026-04-23 00:04 47.80665 -122.29430 5424 ft 266 kts 223°
2026-04-23 00:04 47.79383 -122.31418 6476 ft 266 kts 229°
2026-04-23 00:04 47.78080 -122.33434 7415 ft 274 kts 227°
2026-04-23 00:05 47.76706 -122.35442 8347 ft 281 kts 227°
2026-04-23 00:05 47.75284 -122.37442 9267 ft 289 kts 226°
2026-04-23 00:05 47.73772 -122.39515 10183 ft 296 kts 226°
2026-04-23 00:05 47.72207 -122.41630 10770 ft 317 kts 226°
2026-04-23 00:06 47.70507 -122.43907 11023 ft 350 kts 225°
2026-04-23 00:06 47.68614 -122.46409 11714 ft 366 kts 225°
2026-04-23 00:06 47.66683 -122.48938 12746 ft 374 kts 225°
2026-04-23 00:06 47.64722 -122.51503 13903 ft 379 kts 225°
2026-04-23 00:07 47.62742 -122.54093 14954 ft 384 kts 225°
2026-04-23 00:07 47.60712 -122.56750 16033 ft 387 kts 226°
2026-04-23 00:07 47.58997 -122.59783 16852 ft 384 kts 246°
2026-04-23 00:07 47.58193 -122.63467 17814 ft 381 kts 266°
2026-04-23 00:08 47.58248 -122.67352 18784 ft 379 kts 282°
2026-04-23 00:08 47.59003 -122.71087 19576 ft 380 kts 298°
2026-04-23 00:08 47.60270 -122.74545 20286 ft 386 kts 302°
2026-04-23 00:08 47.61630 -122.78015 21080 ft 392 kts 302°
2026-04-23 00:09 47.63020 -122.81527 21965 ft 397 kts 303°
2026-04-23 00:09 47.64419 -122.85084 22911 ft 402 kts 302°
2026-04-23 00:09 47.65831 -122.88708 23753 ft 408 kts 302°
2026-04-23 00:09 47.67246 -122.92383 24484 ft 413 kts 301°
2026-04-23 00:10 47.68667 -122.96108 25331 ft 414 kts 301°
2026-04-23 00:10 47.70083 -122.99840 26203 ft 415 kts 300°
2026-04-23 00:10 47.71502 -123.03590 27015 ft 417 kts 299°
2026-04-23 00:10 47.72929 -123.07369 27750 ft 421 kts 298°
2026-04-23 00:11 47.74361 -123.11169 28472 ft 424 kts 298°
2026-04-23 00:11 47.75785 -123.14948 29137 ft 428 kts 298°
2026-04-23 00:11 47.77267 -123.18896 29881 ft 431 kts 298°
2026-04-23 00:11 47.78741 -123.22820 30405 ft 437 kts 298°
2026-04-23 00:12 47.80199 -123.26701 30926 ft 440 kts 298°
2026-04-23 00:12 47.81711 -123.30738 31486 ft 442 kts 297°
2026-04-23 00:12 47.83205 -123.34734 31984 ft 444 kts 297°
2026-04-23 00:12 47.84713 -123.38775 32463 ft 447 kts 297°
2026-04-23 00:13 47.86220 -123.42814 33063 ft 446 kts 297°
2026-04-23 00:13 47.87720 -123.46839 33809 ft 442 kts 297°
2026-04-23 00:13 47.89212 -123.50847 34406 ft 440 kts 297°
2026-04-23 00:13 47.90686 -123.54813 34694 ft 445 kts 297°
2026-04-23 00:14 47.91688 -123.57509 34830 ft 448 kts 297°
2026-04-23 00:14 47.93705 -123.62944 35311 ft 450 kts 298°
2026-04-23 00:14 47.94735 -123.65720 35594 ft 451 kts 298°
2026-04-23 00:14 47.96742 -123.71143 36106 ft 452 kts 298°
2026-04-23 00:15 47.97771 -123.73927 36349 ft 453 kts 298°
2026-04-23 00:15 47.99293 -123.78051 36720 ft 454 kts 298°
2026-04-23 00:15 48.00815 -123.82181 37094 ft 455 kts 298°
2026-04-23 00:15 48.02323 -123.86282 37451 ft 456 kts 298°
2026-04-23 00:16 48.03853 -123.90448 37796 ft 458 kts 298°
2026-04-23 00:16 48.05382 -123.94620 38156 ft 459 kts 298°
2026-04-23 00:16 48.06914 -123.98804 38547 ft 459 kts 298°
2026-04-23 00:16 48.08453 -124.03017 38901 ft 460 kts 298°
2026-04-23 00:17 48.09988 -124.07223 39222 ft 460 kts 298°
2026-04-23 00:17 48.11521 -124.11429 39520 ft 460 kts 298°
2026-04-23 00:17 48.13045 -124.15620 39796 ft 460 kts 298°
2026-04-23 00:17 48.14577 -124.19839 40064 ft 460 kts 298°
2026-04-23 00:18 48.16102 -124.24046 40345 ft 460 kts 298°
2026-04-23 00:18 48.17618 -124.28234 40611 ft 460 kts 298°
2026-04-23 00:18 48.19136 -124.32434 40874 ft 460 kts 298°
2026-04-23 00:18 48.20661 -124.36662 41007 ft 463 kts 298°
2026-04-23 00:19 48.22200 -124.40937 41049 ft 466 kts 298°
2026-04-23 00:19 48.25277 -124.49497 41068 ft 465 kts 298°
2026-04-23 00:20 48.28402 -124.57938 41060 ft 459 kts 303°
2026-04-23 00:20 48.32473 -124.65125 41076 ft 457 kts 315°
2026-04-23 00:21 48.37505 -124.71015 41101 ft 457 kts 323°
2026-04-23 00:21 48.42723 -124.76513 41088 ft 457 kts 323°
2026-04-23 00:22 48.47871 -124.82069 41085 ft 457 kts 323°
2026-04-23 00:22 48.53039 -124.87712 41089 ft 458 kts 323°
2026-04-23 00:23 48.58195 -124.93357 41093 ft 458 kts 322°
2026-04-23 00:23 48.63355 -124.99021 41092 ft 458 kts 322°
2026-04-23 00:24 48.68514 -125.04698 41098 ft 459 kts 322°
2026-04-23 00:24 48.73677 -125.10394 41089 ft 459 kts 322°
2026-04-23 00:25 48.78843 -125.16107 41088 ft 459 kts 322°
2026-04-23 00:25 48.83967 -125.21791 41085 ft 459 kts 322°
2026-04-23 00:26 48.89122 -125.27523 41081 ft 459 kts 322°
2026-04-23 00:26 48.94279 -125.33272 41080 ft 459 kts 322°
2026-04-23 00:27 48.99445 -125.39047 41076 ft 459 kts 322°
2026-04-23 00:27 49.04575 -125.44795 41078 ft 460 kts 322°
2026-04-23 00:28 49.09720 -125.50570 41078 ft 460 kts 322°
2026-04-23 00:28 49.14874 -125.56369 41084 ft 459 kts 322°
2026-04-23 00:29 49.20034 -125.62184 41074 ft 459 kts 322°
2026-04-23 00:29 49.25154 -125.67967 41065 ft 460 kts 323°
2026-04-23 00:30 49.30310 -125.73797 41063 ft 460 kts 322°
2026-04-23 00:30 49.35438 -125.79647 41057 ft 459 kts 322°
2026-04-23 00:31 49.40552 -125.85488 41045 ft 457 kts 322°
2026-04-23 00:31 49.45660 -125.91319 41045 ft 457 kts 322°
2026-04-23 00:32 49.50749 -125.97147 41038 ft 456 kts 322°
2026-04-23 00:32 49.55847 -126.03001 41027 ft 456 kts 322°
2026-04-23 00:33 49.60937 -126.08868 41022 ft 456 kts 322°
2026-04-23 00:33 49.65988 -126.14698 41025 ft 456 kts 322°
2026-04-23 00:34 49.71069 -126.20586 41034 ft 456 kts 322°
2026-04-23 00:34 49.76130 -126.26477 41062 ft 455 kts 322°
2026-04-23 00:35 49.81203 -126.32376 41031 ft 456 kts 322°
2026-04-23 00:35 49.86289 -126.38308 41048 ft 457 kts 322°
2026-04-23 00:36 49.91354 -126.44240 41079 ft 458 kts 322°
2026-04-23 00:36 49.96421 -126.50187 41070 ft 458 kts 321°
2026-04-23 00:37 50.01524 -126.56194 41081 ft 459 kts 321°
2026-04-23 00:37 50.06607 -126.62196 41101 ft 459 kts 321°
2026-04-23 00:38 50.11707 -126.68226 41087 ft 460 kts 321°
2026-04-23 00:38 50.16792 -126.74265 41100 ft 459 kts 321°
2026-04-23 00:39 50.21817 -126.80259 41118 ft 457 kts 321°
2026-04-23 00:39 50.26859 -126.86270 41131 ft 455 kts 321°
2026-04-23 00:40 50.31875 -126.92264 41131 ft 452 kts 321°
2026-04-23 00:40 50.36883 -126.98276 41102 ft 450 kts 321°
2026-04-23 00:41 50.41818 -127.04221 41159 ft 447 kts 321°
2026-04-23 00:41 50.46729 -127.10138 41166 ft 447 kts 321°
2026-04-23 00:42 50.51665 -127.16105 41171 ft 449 kts 321°
2026-04-23 00:42 50.56612 -127.22109 41184 ft 451 kts 321°
2026-04-23 00:43 50.61596 -127.28173 41186 ft 452 kts 321°
2026-04-23 00:43 50.66589 -127.34260 41187 ft 454 kts 321°
2026-04-23 00:44 50.71277 -127.40827 41182 ft 454 kts 314°
2026-04-23 00:44 50.75724 -127.47943 41187 ft 455 kts 314°
2026-04-23 00:45 50.80163 -127.55097 41193 ft 455 kts 314°
2026-04-23 00:45 50.84591 -127.62205 41184 ft 451 kts 314°
2026-04-23 00:46 50.88957 -127.69206 41173 ft 443 kts 314°
2026-04-23 00:46 50.93259 -127.76115 41199 ft 442 kts 314°
2026-04-23 00:47 50.97608 -127.83122 41201 ft 447 kts 314°
2026-04-23 00:47 51.01961 -127.90156 41209 ft 451 kts 314°
2026-04-23 00:48 51.06375 -127.97308 41218 ft 453 kts 314°
2026-04-23 00:48 51.10761 -128.04435 41213 ft 448 kts 314°
2026-04-23 00:49 51.15099 -128.11505 41213 ft 444 kts 314°
2026-04-23 00:49 51.19405 -128.18547 41217 ft 442 kts 314°
2026-04-23 00:50 51.23700 -128.25584 41219 ft 442 kts 314°
2026-04-23 00:50 51.27982 -128.32622 41227 ft 447 kts 314°
2026-04-23 00:51 51.32334 -128.39795 41227 ft 451 kts 314°
2026-04-23 00:51 51.36689 -128.47000 41236 ft 449 kts 314°
2026-04-23 00:52 51.40979 -128.54112 41222 ft 443 kts 314°
2026-04-23 00:52 51.45248 -128.61214 41230 ft 441 kts 314°
2026-04-23 00:53 51.49499 -128.68302 41237 ft 440 kts 314°
2026-04-23 00:53 51.53737 -128.75390 41254 ft 442 kts 314°
2026-04-23 00:54 51.57969 -128.82489 41262 ft 446 kts 314°
2026-04-23 00:54 51.62269 -128.89723 41259 ft 448 kts 314°
2026-04-23 00:55 51.66536 -128.96920 41258 ft 446 kts 314°
2026-04-23 00:55 51.70841 -129.04205 41273 ft 441 kts 314°
2026-04-23 00:56 51.75028 -129.11310 41260 ft 438 kts 314°
2026-04-23 00:56 51.79217 -129.18442 41261 ft 435 kts 314°
2026-04-23 00:57 51.83384 -129.25553 41268 ft 438 kts 314°
2026-04-23 00:57 51.87599 -129.32767 41279 ft 444 kts 314°
2026-04-23 00:58 51.91828 -129.40027 41276 ft 447 kts 314°
2026-04-23 00:58 51.96077 -129.47345 41275 ft 442 kts 314°
2026-04-23 00:59 52.00270 -129.54585 41279 ft 437 kts 314°
2026-04-23 00:59 52.04423 -129.61778 41289 ft 435 kts 314°
2026-04-23 01:00 52.08597 -129.69029 41297 ft 441 kts 314°
2026-04-23 01:00 52.12797 -129.76348 41300 ft 444 kts 314°
2026-04-23 01:01 52.17000 -129.83691 41300 ft 446 kts 314°
2026-04-23 01:01 52.21208 -129.91067 41292 ft 442 kts 314°
2026-04-23 01:02 52.25366 -129.98375 41299 ft 437 kts 314°
2026-04-23 01:02 52.29483 -130.05631 41308 ft 435 kts 314°
2026-04-23 01:03 52.32903 -130.11677 41318 ft 436 kts 314°
2026-04-23 01:03 52.37060 -130.19046 41335 ft 443 kts 314°
2026-04-23 01:04 52.41237 -130.26472 41333 ft 447 kts 314°
2026-04-23 01:04 52.47488 -130.37630 41319 ft 439 kts 314°
2026-04-23 01:05 52.51600 -130.44997 41327 ft 435 kts 314°
2026-04-23 01:05 52.55710 -130.52381 41335 ft 434 kts 313°
2026-04-23 01:06 52.59806 -130.59759 41359 ft 439 kts 313°
2026-04-23 01:06 52.63927 -130.67207 41349 ft 446 kts 313°
2026-04-23 01:07 52.68120 -130.74808 41353 ft 450 kts 313°
2026-04-23 01:07 52.72306 -130.82423 41345 ft 444 kts 313°
2026-04-23 01:08 52.76424 -130.89937 41348 ft 439 kts 313°
2026-04-23 01:08 52.80508 -130.97409 41357 ft 437 kts 313°
2026-04-23 01:09 52.84579 -131.04880 41362 ft 437 kts 313°
2026-04-23 01:09 52.88652 -131.12376 41371 ft 438 kts 313°
2026-04-23 01:10 52.92700 -131.19850 41373 ft 440 kts 313°
2026-04-23 01:10 52.96795 -131.27435 41385 ft 442 kts 313°
2026-04-23 01:11 53.00901 -131.35064 41374 ft 443 kts 313°
2026-04-23 01:11 53.05015 -131.42730 41379 ft 444 kts 313°
2026-04-23 01:12 53.09104 -131.50374 41375 ft 446 kts 313°
2026-04-23 01:12 53.13226 -131.58105 41368 ft 446 kts 313°
2026-04-23 01:13 53.17351 -131.65863 41357 ft 446 kts 313°
2026-04-23 01:13 53.21429 -131.73557 41358 ft 446 kts 313°
2026-04-23 01:14 53.25955 -131.80649 41373 ft 445 kts 322°
2026-04-23 01:14 53.31105 -131.86403 41360 ft 444 kts 330°
2026-04-23 01:15 53.36497 -131.91431 41364 ft 444 kts 331°
2026-04-23 01:15 53.41908 -131.96435 41374 ft 444 kts 331°
2026-04-23 01:16 53.47299 -132.01483 41402 ft 444 kts 330°
2026-04-23 01:16 53.52674 -132.06565 41416 ft 443 kts 330°
2026-04-23 01:17 53.57991 -132.11616 41419 ft 443 kts 330°
2026-04-23 01:17 53.63391 -132.16760 41414 ft 443 kts 330°
2026-04-23 01:18 53.68754 -132.21884 41413 ft 443 kts 330°
2026-04-23 01:18 53.74111 -132.27016 41439 ft 443 kts 330°
2026-04-23 01:19 53.79466 -132.32162 41431 ft 443 kts 330°
2026-04-23 01:19 53.84820 -132.37321 41430 ft 442 kts 330°
2026-04-23 01:20 53.90108 -132.42432 41441 ft 442 kts 330°
2026-04-23 01:20 53.95456 -132.47617 41444 ft 442 kts 330°
2026-04-23 01:21 54.00820 -132.52833 41440 ft 442 kts 330°
2026-04-23 01:21 54.06168 -132.58048 41433 ft 442 kts 330°
2026-04-23 01:22 54.11472 -132.63237 41440 ft 442 kts 330°
2026-04-23 01:22 54.16813 -132.68477 41442 ft 442 kts 330°
2026-04-23 01:23 54.22142 -132.73721 41447 ft 442 kts 330°
2026-04-23 01:23 54.27444 -132.78954 41450 ft 442 kts 330°
2026-04-23 01:24 54.32790 -132.84247 41443 ft 442 kts 330°
2026-04-23 01:24 54.38080 -132.89500 41452 ft 442 kts 329°
2026-04-23 01:25 54.43396 -132.94796 41440 ft 442 kts 329°
2026-04-23 01:25 54.48714 -133.00108 41442 ft 442 kts 329°
2026-04-23 01:26 54.59479 -133.11174 41447 ft 442 kts 323°
2026-04-23 01:27 54.64288 -133.17646 41441 ft 442 kts 322°
2026-04-23 01:27 54.69149 -133.24347 41438 ft 442 kts 322°
2026-04-23 01:28 54.73939 -133.30937 41439 ft 442 kts 322°
2026-04-23 01:28 54.78758 -133.37553 41435 ft 442 kts 322°
2026-04-23 01:29 54.83547 -133.44135 41442 ft 441 kts 322°
2026-04-23 01:29 54.88364 -133.50775 41442 ft 441 kts 322°
2026-04-23 01:30 54.93166 -133.57415 41443 ft 441 kts 322°
2026-04-23 01:30 54.97974 -133.64086 41442 ft 441 kts 322°
2026-04-23 01:31 55.02769 -133.70760 41443 ft 441 kts 322°
2026-04-23 01:31 55.07517 -133.77389 41442 ft 441 kts 322°
2026-04-23 01:32 55.12303 -133.84093 41445 ft 441 kts 322°
2026-04-23 01:32 55.17103 -133.90837 41439 ft 441 kts 321°
2026-04-23 01:33 55.21884 -133.97575 41438 ft 441 kts 321°
2026-04-23 01:33 55.26632 -134.04289 41448 ft 441 kts 321°
2026-04-23 01:34 55.31398 -134.11050 41448 ft 441 kts 321°
2026-04-23 01:34 55.36158 -134.17825 41447 ft 441 kts 321°
2026-04-23 01:35 55.40923 -134.24626 41449 ft 441 kts 321°
2026-04-23 01:35 55.45682 -134.31443 41444 ft 441 kts 321°
2026-04-23 01:36 55.50434 -134.38269 41448 ft 441 kts 321°
2026-04-23 01:36 55.55164 -134.45087 41457 ft 441 kts 321°
2026-04-23 01:37 55.59930 -134.51980 41459 ft 441 kts 321°
2026-04-23 01:37 55.64638 -134.58810 41461 ft 441 kts 321°
2026-04-23 01:38 55.69388 -134.65722 41449 ft 441 kts 321°
2026-04-23 01:38 55.74119 -134.72631 41449 ft 440 kts 321°
2026-04-23 01:39 55.78844 -134.79552 41452 ft 440 kts 321°
2026-04-23 01:39 55.83534 -134.86445 41453 ft 439 kts 321°
2026-04-23 01:40 55.88244 -134.93389 41456 ft 439 kts 321°
2026-04-23 01:40 55.92939 -135.00334 41458 ft 438 kts 321°
2026-04-23 01:41 55.96826 -135.06101 41460 ft 438 kts 321°
2026-04-23 01:41 56.02286 -135.14228 41461 ft 438 kts 320°
2026-04-23 01:42 56.06947 -135.21191 41465 ft 438 kts 320°
2026-04-23 01:42 56.10848 -135.27034 41458 ft 438 kts 320°
2026-04-23 01:43 56.15498 -135.34022 41461 ft 438 kts 320°
2026-04-23 01:43 56.20186 -135.41090 41461 ft 438 kts 320°
2026-04-23 01:44 56.24831 -135.48116 41462 ft 438 kts 320°
2026-04-23 01:44 56.29515 -135.55224 41461 ft 438 kts 320°
2026-04-23 01:45 56.34138 -135.62264 41464 ft 438 kts 320°
2026-04-23 01:45 56.38789 -135.69369 41464 ft 438 kts 320°
2026-04-23 01:46 56.43438 -135.76494 41466 ft 438 kts 320°
2026-04-23 01:46 56.48084 -135.83640 41466 ft 438 kts 320°
2026-04-23 01:47 56.52723 -135.90797 41466 ft 438 kts 320°
2026-04-23 01:47 56.57317 -135.97910 41464 ft 438 kts 320°
2026-04-23 01:48 56.61955 -136.05114 41459 ft 438 kts 320°
2026-04-23 01:48 56.66588 -136.12335 41462 ft 438 kts 320°
2026-04-23 01:49 56.71221 -136.19579 41470 ft 439 kts 320°
2026-04-23 01:49 56.75802 -136.26767 41467 ft 439 kts 319°
2026-04-23 01:50 56.80446 -136.34077 41465 ft 439 kts 319°
2026-04-23 01:50 56.85058 -136.41362 41463 ft 437 kts 319°
2026-04-23 01:51 56.89646 -136.48635 41460 ft 435 kts 319°
2026-04-23 01:51 56.94204 -136.55884 41465 ft 433 kts 319°
2026-04-23 01:52 56.98760 -136.63153 41463 ft 433 kts 319°
2026-04-23 01:52 57.03270 -136.70375 41465 ft 434 kts 319°
2026-04-23 01:53 57.07819 -136.77683 41463 ft 435 kts 319°
2026-04-23 01:53 57.12375 -136.85027 41460 ft 436 kts 319°
2026-04-23 01:54 57.16945 -136.92419 41459 ft 437 kts 319°
2026-04-23 01:54 57.21522 -136.99847 41458 ft 438 kts 318°
2026-04-23 01:55 57.26065 -137.07246 41462 ft 439 kts 318°
2026-04-23 01:55 57.30646 -137.14733 41460 ft 440 kts 318°
2026-04-23 01:56 57.35227 -137.22245 41459 ft 440 kts 318°
2026-04-23 01:56 57.39814 -137.29794 41456 ft 440 kts 318°
2026-04-23 01:57 57.44385 -137.37341 41451 ft 440 kts 318°
2026-04-23 01:57 57.48960 -137.44923 41453 ft 440 kts 318°
2026-04-23 01:58 57.53484 -137.52446 41455 ft 439 kts 318°
2026-04-23 01:58 57.58263 -137.60422 41453 ft 439 kts 317°
2026-04-23 01:59 57.62832 -137.68075 41452 ft 439 kts 317°
2026-04-23 01:59 57.67318 -137.75614 41451 ft 439 kts 317°
2026-04-23 02:00 57.71867 -137.83348 41457 ft 438 kts 315°
2026-04-23 02:00 57.75876 -137.91983 41466 ft 438 kts 308°
2026-04-23 02:01 57.79610 -138.00919 41451 ft 438 kts 308°
2026-04-23 02:01 57.83363 -138.09916 41453 ft 438 kts 308°
2026-04-23 02:02 57.87131 -138.18929 41462 ft 438 kts 308°
2026-04-23 02:02 57.90905 -138.27965 41448 ft 439 kts 308°
2026-04-23 02:03 57.94677 -138.37024 41456 ft 439 kts 308°
2026-04-23 02:03 57.98425 -138.46062 41447 ft 440 kts 308°
2026-04-23 02:04 58.02192 -138.55182 41451 ft 441 kts 308°
2026-04-23 02:04 58.05961 -138.64342 41452 ft 441 kts 308°
2026-04-23 02:05 58.09718 -138.73506 41448 ft 441 kts 308°
2026-04-23 02:05 58.13444 -138.82632 41449 ft 441 kts 307°
2026-04-23 02:06 58.17168 -138.91788 41445 ft 441 kts 307°
2026-04-23 02:06 58.20928 -139.01069 41449 ft 440 kts 307°
2026-04-23 02:07 58.24659 -139.10313 41441 ft 441 kts 307°
2026-04-23 02:07 58.28380 -139.19568 41442 ft 441 kts 307°
2026-04-23 02:08 58.32073 -139.28789 41446 ft 441 kts 307°
2026-04-23 02:08 58.35782 -139.38087 41441 ft 440 kts 307°
2026-04-23 02:09 58.39466 -139.47359 41441 ft 440 kts 307°
2026-04-23 02:09 58.43175 -139.56730 41442 ft 441 kts 307°
2026-04-23 02:10 58.46861 -139.66082 41442 ft 441 kts 307°
2026-04-23 02:10 58.50525 -139.75412 41442 ft 441 kts 307°
2026-04-23 02:11 58.54201 -139.84810 41439 ft 441 kts 307°
2026-04-23 02:11 58.57877 -139.94246 41444 ft 442 kts 306°
2026-04-23 02:12 58.61553 -140.03720 41435 ft 442 kts 306°
2026-04-23 02:12 58.65219 -140.13205 41450 ft 442 kts 306°
2026-04-23 02:13 58.68262 -140.21108 41432 ft 443 kts 306°
2026-04-23 02:13 58.72516 -140.32201 41436 ft 443 kts 306°
2026-04-23 02:14 58.75534 -140.40101 41437 ft 443 kts 306°
2026-04-23 02:14 58.79189 -140.49701 41436 ft 443 kts 306°
2026-04-23 02:15 58.84186 -140.64785 41440 ft 444 kts 301°
2026-04-23 02:16 58.87339 -140.75043 41438 ft 444 kts 301°
2026-04-23 02:16 58.90462 -140.85199 41429 ft 444 kts 301°
2026-04-23 02:17 58.93642 -140.95527 41429 ft 445 kts 300°
2026-04-23 02:17 58.96808 -141.05836 41434 ft 445 kts 300°
2026-04-23 02:18 58.99971 -141.16176 41429 ft 446 kts 300°
2026-04-23 02:18 59.03133 -141.26560 41426 ft 446 kts 300°
2026-04-23 02:19 59.06290 -141.36975 41432 ft 447 kts 300°
2026-04-23 02:19 59.09439 -141.47411 41431 ft 447 kts 300°
2026-04-23 02:20 59.12556 -141.57789 41425 ft 447 kts 300°
2026-04-23 02:20 59.15683 -141.68247 41427 ft 447 kts 300°
2026-04-23 02:21 59.18820 -141.78786 41422 ft 447 kts 299°
2026-04-23 02:21 59.21932 -141.89288 41424 ft 447 kts 299°
2026-04-23 02:22 59.25024 -141.99768 41434 ft 447 kts 299°
2026-04-23 02:22 59.28110 -142.10281 41420 ft 447 kts 299°
2026-04-23 02:23 59.31203 -142.20862 41418 ft 447 kts 298°
2026-04-23 02:23 59.34278 -142.31430 41412 ft 447 kts 298°
2026-04-23 02:24 59.37350 -142.42037 41415 ft 447 kts 298°
2026-04-23 02:24 59.40407 -142.52641 41422 ft 446 kts 298°
2026-04-23 02:25 59.43459 -142.63274 41411 ft 446 kts 298°
2026-04-23 02:25 59.46481 -142.73856 41411 ft 446 kts 298°
2026-04-23 02:26 59.49515 -142.84528 41409 ft 446 kts 298°
2026-04-23 02:26 59.52533 -142.95193 41407 ft 446 kts 298°
2026-04-23 02:27 59.55544 -143.05882 41419 ft 446 kts 297°
2026-04-23 02:27 59.58532 -143.16541 41407 ft 446 kts 297°
2026-04-23 02:28 59.61539 -143.27320 41402 ft 447 kts 297°
2026-04-23 02:28 59.64532 -143.38096 41400 ft 447 kts 297°
2026-04-23 02:29 59.67507 -143.48852 41396 ft 447 kts 297°
2026-04-23 02:29 59.70487 -143.59643 41401 ft 447 kts 297°
2026-04-23 02:30 59.73484 -143.70511 41399 ft 447 kts 296°
2026-04-23 02:30 59.76457 -143.81345 41400 ft 448 kts 296°
2026-04-23 02:31 59.79429 -143.92234 41391 ft 448 kts 296°
2026-04-23 02:31 59.82372 -144.03073 41392 ft 448 kts 296°
2026-04-23 02:32 59.85327 -144.14006 41387 ft 448 kts 296°
2026-04-23 02:32 59.88273 -144.24960 41388 ft 448 kts 296°
2026-04-23 02:33 59.91211 -144.35935 41388 ft 448 kts 296°
2026-04-23 02:33 59.94135 -144.46913 41387 ft 449 kts 296°
2026-04-23 02:34 59.97036 -144.57859 41383 ft 448 kts 296°
2026-04-23 02:34 59.99937 -144.68859 41386 ft 448 kts 296°
2026-04-23 02:35 60.02849 -144.79953 41384 ft 449 kts 295°
2026-04-23 02:35 60.05743 -144.91035 41384 ft 449 kts 295°
2026-04-23 02:36 60.08628 -145.02138 41380 ft 449 kts 295°
2026-04-23 02:36 60.11504 -145.13260 41380 ft 450 kts 295°
2026-04-23 02:37 60.14362 -145.24365 41383 ft 450 kts 295°
2026-04-23 02:37 60.17223 -145.35541 41388 ft 450 kts 295°
2026-04-23 02:38 60.20084 -145.46774 41375 ft 451 kts 294°
2026-04-23 02:38 60.22935 -145.58025 41375 ft 451 kts 294°
2026-04-23 02:39 60.25759 -145.69224 41371 ft 451 kts 294°
2026-04-23 02:39 60.28596 -145.80535 41361 ft 451 kts 294°
2026-04-23 02:40 60.31418 -145.91837 41372 ft 452 kts 294°
2026-04-23 02:40 60.34238 -146.03197 41366 ft 452 kts 294°
2026-04-23 02:41 60.37050 -146.14580 41370 ft 453 kts 294°
2026-04-23 02:41 60.39831 -146.25901 41368 ft 453 kts 294°
2026-04-23 02:42 60.42628 -146.37342 41369 ft 453 kts 293°
2026-04-23 02:42 60.45420 -146.48811 41381 ft 453 kts 293°
2026-04-23 02:43 60.48051 -146.60370 41372 ft 451 kts 288°
2026-04-23 02:43 60.49769 -146.72479 41367 ft 449 kts 281°
2026-04-23 02:44 60.51316 -146.84802 41345 ft 451 kts 286°
2026-04-23 02:44 60.52630 -146.90599 41369 ft 456 kts 298°
2026-04-23 02:44 60.54434 -146.95922 41375 ft 458 kts 302°
2026-04-23 02:45 60.58393 -147.06149 41379 ft 461 kts 306°
2026-04-23 02:45 60.62486 -147.16222 41355 ft 462 kts 306°
2026-04-23 02:46 60.66578 -147.26372 41343 ft 462 kts 306°
2026-04-23 02:46 60.70209 -147.37094 41334 ft 456 kts 291°
2026-04-23 02:47 60.72107 -147.49229 41340 ft 449 kts 277°
2026-04-23 02:47 60.73100 -147.61810 41344 ft 449 kts 276°
2026-04-23 02:48 60.74079 -147.74456 41339 ft 451 kts 276°
2026-04-23 02:48 60.75076 -147.87132 41323 ft 452 kts 276°
2026-04-23 02:49 60.76080 -147.99828 41331 ft 452 kts 276°
2026-04-23 02:49 60.77078 -148.12547 41319 ft 452 kts 275°
2026-04-23 02:50 60.78061 -148.25247 41328 ft 452 kts 275°
2026-04-23 02:50 60.79020 -148.37819 41335 ft 452 kts 275°
2026-04-23 02:50 60.79506 -148.44233 41059 ft 457 kts 275°
2026-04-23 02:51 60.79995 -148.50793 40265 ft 465 kts 275°
2026-04-23 02:51 60.80481 -148.57326 39526 ft 464 kts 274°
2026-04-23 02:51 60.80966 -148.63852 38945 ft 459 kts 274°
2026-04-23 02:51 60.81440 -148.70237 38356 ft 451 kts 274°
2026-04-23 02:52 60.81904 -148.76546 37780 ft 445 kts 273°
2026-04-23 02:52 60.82360 -148.82814 37088 ft 442 kts 273°
2026-04-23 02:52 60.82811 -148.89039 36307 ft 440 kts 272°
2026-04-23 02:52 60.83253 -148.95240 35488 ft 440 kts 272°
2026-04-23 02:53 60.83685 -149.01369 34705 ft 439 kts 272°
2026-04-23 02:53 60.84121 -149.07563 33849 ft 438 kts 272°
2026-04-23 02:53 60.84552 -149.13762 32712 ft 442 kts 272°
2026-04-23 02:53 60.84988 -149.20033 31719 ft 444 kts 273°
2026-04-23 02:54 60.85576 -149.26242 30982 ft 441 kts 277°
2026-04-23 02:54 60.86281 -149.32263 30445 ft 435 kts 278°
2026-04-23 02:54 60.87019 -149.38321 29798 ft 430 kts 278°
2026-04-23 02:54 60.87748 -149.44256 29049 ft 427 kts 278°
2026-04-23 02:55 60.88472 -149.50125 28167 ft 424 kts 278°
2026-04-23 02:55 60.89183 -149.55885 27472 ft 421 kts 278°
2026-04-23 02:55 60.89908 -149.61734 26710 ft 419 kts 278°
2026-04-23 02:55 60.90623 -149.67469 26044 ft 415 kts 278°
2026-04-23 02:56 60.91346 -149.73297 25370 ft 411 kts 278°
2026-04-23 02:56 60.92044 -149.78897 24744 ft 409 kts 278°
2026-04-23 02:56 60.92760 -149.84576 23841 ft 414 kts 278°
2026-04-23 02:56 60.93487 -149.90325 22771 ft 412 kts 278°
2026-04-23 02:57 60.94206 -149.95877 21673 ft 398 kts 278°
2026-04-23 02:57 60.94929 -150.01440 20690 ft 405 kts 278°
2026-04-23 02:57 60.95658 -150.07067 19694 ft 411 kts 278°
2026-04-23 02:57 60.96401 -150.12801 18740 ft 412 kts 278°
2026-04-23 02:58 60.97121 -150.18241 17690 ft 387 kts 278°
2026-04-23 02:58 60.97840 -150.23498 16608 ft 366 kts 278°
2026-04-23 02:58 60.98531 -150.28405 15587 ft 348 kts 278°
2026-04-23 02:58 60.99204 -150.33082 14617 ft 334 kts 278°
2026-04-23 02:59 60.99751 -150.37591 13623 ft 312 kts 267°
2026-04-23 02:59 60.99561 -150.41765 12562 ft 284 kts 244°
2026-04-23 02:59 60.98578 -150.45065 11529 ft 263 kts 220°
2026-04-23 02:59 60.97051 -150.46893 10540 ft 252 kts 195°
2026-04-23 03:00 60.95318 -150.46931 9532 ft 253 kts 170°
2026-04-23 03:00 60.93762 -150.45175 8477 ft 263 kts 143°
2026-04-23 03:00 60.92755 -150.42012 7481 ft 276 kts 117°
2026-04-23 03:00 60.92347 -150.38094 6781 ft 281 kts 106°
2026-04-23 03:01 60.92100 -150.34106 6428 ft 277 kts 102°
2026-04-23 03:01 60.92292 -150.30159 6092 ft 285 kts 77°
2026-04-23 03:01 60.92901 -150.27749 5888 ft 291 kts 59°
2026-04-23 03:01 60.94436 -150.25006 5630 ft 296 kts 31°
2026-04-23 03:02 60.96359 -150.23880 5366 ft 294 kts
2026-04-23 03:02 60.98403 -150.24310 5119 ft 288 kts 348°
2026-04-23 03:02 61.00352 -150.25175 4870 ft 288 kts 346°
2026-04-23 03:02 61.02311 -150.26113 4629 ft 290 kts 346°
2026-04-23 03:03 61.04288 -150.27093 4373 ft 291 kts 346°
2026-04-23 03:03 61.06237 -150.28089 4108 ft 284 kts 345°
2026-04-23 03:03 61.08041 -150.29543 3816 ft 276 kts 329°
2026-04-23 03:03 61.09674 -150.31635 3580 ft 276 kts 325°
2026-04-23 03:04 61.11242 -150.33821 3328 ft 275 kts 324°
2026-04-23 03:04 61.12818 -150.36059 3060 ft 270 kts 328°
2026-04-23 03:04 61.14559 -150.37372 2782 ft 266 kts 358°
2026-04-23 03:04 61.16323 -150.36819 2514 ft 250 kts 30°
2026-04-23 03:05 61.17593 -150.34636 2235 ft 231 kts 63°
2026-04-23 03:05 61.18031 -150.31608 1960 ft 214 kts 96°
2026-04-23 03:05 61.17596 -150.28816 1844 ft 201 kts 118°
2026-04-23 03:05 61.17103 -150.26085 1759 ft 206 kts 104°
2026-04-23 03:06 61.16921 -150.23169 1691 ft 197 kts 98°
2026-04-23 03:06 61.16791 -150.20406 1643 ft 190 kts 97°
2026-04-23 03:06 61.16759 -150.17839 1494 ft 175 kts 93°
2026-04-23 03:06 61.16766 -150.15366 1253 ft 159 kts 93°
2026-04-23 03:07 61.16768 -150.13183 1021 ft 141 kts 92°
2026-04-23 03:07 61.16769 -150.11264 845 ft 139 kts 90°
2026-04-23 03:07 61.16772 -150.09193 648 ft 141 kts 89°
2026-04-23 03:07 61.16774 -150.07178 462 ft 138 kts 88°
2026-04-23 03:08 61.16782 -150.05256 289 ft 129 kts 88°
2026-04-23 03:08 61.16775 -150.03441 151 ft 122 kts 88°
2026-04-23 03:08 61.16791 -150.01868 142 ft 93 kts 89°
2026-04-23 03:08 61.16795 -150.00979 139 ft 19 kts 90°
2026-04-23 03:09 61.16845 -150.00813 137 ft 6 kts
2026-04-23 03:09 61.16868 -150.00813 138 ft 0 kts
2026-04-23 03:09 61.16872 -150.00813 138 ft 4 kts
2026-04-23 03:09 61.16962 -150.00814 141 ft 15 kts 360°
2026-04-23 03:10 61.17061 -150.00814 140 ft 11 kts 360°
2026-04-23 03:10 61.17114 -150.00746 141 ft 10 kts 66°
2026-04-23 03:10 61.17125 -150.00603 142 ft 11 kts 86°
2026-04-23 03:10 61.17127 -150.00435 142 ft 12 kts 91°
2026-04-23 03:11 61.17125 -150.00242 139 ft 14 kts 91°
2026-04-23 03:11 61.17124 -150.00017 138 ft 18 kts 89°
2026-04-23 03:11 61.17125 -149.99738 133 ft 18 kts 90°
2026-04-23 03:11 61.17125 -149.99494 128 ft 15 kts 90°
2026-04-23 03:12 61.17125 -149.99287 126 ft 16 kts 90°
2026-04-23 03:12 61.17145 -149.99116 118 ft 12 kts 41°
2026-04-23 03:12 61.17231 -149.99127 113 ft 14 kts 345°
2026-04-23 03:12 61.17313 -149.99178 114 ft 13 kts 340°
2026-04-23 03:13 61.17410 -149.99250 113 ft 16 kts 340°
2026-04-23 03:13 61.17495 -149.99314 111 ft 6 kts 339°
2026-04-23 03:13 61.17537 -149.99346 110 ft 7 kts 345°
2026-04-23 03:13 61.17569 -149.99280 107 ft 8 kts 70°
2026-04-23 03:14 61.17581 -149.99209 108 ft 0 kts 69°